[[{"header":{"parameterUnit":"m.s-1","parameterCategory":1,"la1":30.2991,"la2":30.254,"lo1":-89.0895,"lo2":-89.0444,"dy":0.0017,"dx":0.0017,"nx":28,"ny":28,"refTime":"2024-05-27T21:00:00:Z","depth":0,"parameterNumber":2,"parameterNumberName":"U-component_of_WINDS"},"data":[0,0,0,0,0,0,0,0,0,0,0,0,0,0,0,0,0,0,0,0,0,0,0,0,0,0,0,0,0,0,0,0,0,0,0,0,0,0,0,0,0,0,0,0,0,0,0,0,0,0,0,0,0,0,0,0,0,0,0.3039,0.3039,0,0.3068,0.3068,0.3068,0.3055,0.3055,0.3054,0.3053,0.3086,0.3087,0.3089,0,0,0,0,0,0,0,0,0,0,0,0,0,0.2976,0.2977,0.3039,0.3039,0.304,0.3068,0.3068,0.3069,0.3055,0.3055,0.3054,0.3053,0.3085,0.3087,0.3089,0,0,0,0,0,0,0,0,0,0,0,0,0,0.3004,0.2977,0.3039,0.3036,0.3036,0.3068,0.3068,0.3069,0.3056,0.3055,0.3053,0.3052,0.3085,0.3087,0.3089,0.3126,0,0,0.3096,0.3097,0,0,0,0,0,0,0,0,0.3002,0.3006,0.3036,0.3037,0.3037,0.3057,0.3058,0.3088,0.3056,0.3048,0.3053,0.3052,0.3077,0.308,0.3088,0.3127,0.3128,0.3097,0.3098,0.3099,0.31,0,0,0,0,0,0,0,0.3,0.3005,0.305,0.3037,0.3037,0.3035,0.3038,0.3064,0.3069,0.3049,0.3048,0.3052,0.3077,0.3086,0.3089,0.3129,0.3097,0.3099,0.31,0.3101,0.3202,0.3203,0,0,0,0,0,0,0.2998,0.3003,0.3049,0.3051,0.3016,0.3037,0.304,0.3051,0.3068,0.307,0.3052,0.3051,0.3082,0.3086,0.309,0.3135,0.3099,0.3101,0.3102,0.32,0.3202,0.3203,0,0,0,0,0,0,0.2997,0.3002,0.3048,0.3027,0.3033,0.3039,0.3052,0.3053,0.3061,0.3071,0.3072,0.306,0.3082,0.3087,0.3117,0.3136,0.3102,0.3104,0.3199,0.3201,0.3203,0.3225,0,0,0,0,0,0,0.2995,0.3002,0.3015,0.3027,0.3034,0.3074,0.3053,0.3054,0.3065,0.3063,0.3078,0.308,0.3081,0.3114,0.3119,0.3138,0.3106,0.3197,0.32,0.3202,0.3222,0.3227,0.3231,0,0,0,0,0,0.2993,0.302,0.3015,0.3021,0.305,0.3075,0.3079,0.3079,0.3066,0.308,0.3087,0.308,0.3133,0.3117,0.3123,0.3143,0.3196,0.3199,0.3202,0.322,0.3226,0.3231,0,0,0,0,0,0,0.3009,0.3021,0.3017,0.3048,0.3061,0.3073,0.309,0.3085,0.3101,0.3099,0.3099,0.3103,0.3135,0.3142,0.3124,0.318,0.3163,0.3167,0.3175,0.318,0.3184,0.3183,0.3108,0,0,0,0,0,0.3017,0.3035,0.3045,0.3072,0.3078,0.3083,0.3094,0.3093,0.3106,0.3111,0.312,0.3134,0.3154,0.3168,0.3186,0.3223,0.3227,0.324,0.3245,0.3248,0.3252,0.3274,0.3281,0.3213,0.3213,0.3213,0,0,0.3032,0.3041,0.3052,0.3075,0.3085,0.3105,0.3087,0.3109,0.3125,0.3115,0.3145,0.3152,0.3168,0.3202,0.3217,0.3209,0.3272,0.3252,0.3255,0.3257,0.3278,0.3284,0.329,0.3215,0.3214,0.3214,0,0,0.3071,0.3078,0.3103,0.3113,0.3127,0.313,0.3136,0.315,0.3154,0.3183,0.3177,0.3196,0.323,0.3242,0.3253,0.3298,0.3293,0.3304,0.3328,0.3349,0.3355,0.3359,0.3377,0.3383,0.3308,0.3308,0.3308,0,0.3088,0.3117,0.3116,0.3139,0.315,0.3142,0.3167,0.3178,0.3198,0.3207,0.3196,0.324,0.325,0.3288,0.3299,0.3308,0.3316,0.3303,0.3354,0.3359,0.3363,0.338,0.3387,0.331,0.3309,0.3309,0.3309,0,0.3139,0.316,0.3178,0.3197,0.3211,0.3235,0.3238,0.3252,0.3251,0.3256,0.3287,0.3299,0.3321,0.333,0.3328,0.3368,0.3363,0.3353,0.3336,0.3371,0.3387,0.3393,0.3312,0.3311,0.3311,0.331,0,0,0.3188,0.3208,0.3214,0.3224,0.324,0.3257,0.3282,0.3303,0.3315,0.333,0.3352,0.3382,0.3374,0.3386,0.3386,0.3405,0.3442,0.3393,0.3394,0.3403,0.3489,0.3497,0.3504,0.3438,0.344,0.3441,0.3488,0,0.3229,0.3271,0.3271,0.3311,0.3331,0.3325,0.3346,0.336,0.3365,0.3385,0.3391,0.3413,0.34,0.3407,0.3425,0.3434,0.346,0.343,0.3461,0.3462,0.3458,0.3512,0.352,0.3565,0.3494,0.3495,0.3496,0,0.3281,0.3298,0.334,0.3355,0.3363,0.3383,0.3403,0.3421,0.3437,0.344,0.3454,0.3452,0.3479,0.346,0.3499,0.3479,0.3491,0.3497,0.3499,0.3503,0.3482,0.3519,0.3578,0.3586,0.3506,0.3505,0.3504,0,0.3315,0.3348,0.3377,0.3385,0.3403,0.3418,0.3426,0.3441,0.3454,0.3472,0.3481,0.3502,0.3515,0.3532,0.3536,0.3522,0.3576,0.3556,0.358,0.358,0.3592,0.3592,0.3656,0.3599,0.3599,0.3598,0.3598,0,0.3361,0.3387,0.3393,0.3411,0.3441,0.3442,0.3472,0.3479,0.3493,0.3513,0.3509,0.3529,0.3533,0.3554,0.3558,0.3591,0.3596,0.36,0.3601,0.3601,0.3601,0.361,0.3608,0.36,0.36,0.3599,0.3599,0,0.3403,0.3408,0.344,0.3455,0.3459,0.3481,0.3494,0.3513,0.3518,0.3545,0.3551,0.356,0.3586,0.3591,0.3621,0.3624,0.3663,0.366,0.3657,0.3658,0.3682,0.368,0.3755,0.3766,0.37,0.3701,0.3701,0,0.3432,0.3452,0.347,0.3483,0.3492,0.3514,0.3527,0.353,0.3545,0.3565,0.3582,0.3606,0.3626,0.3667,0.3677,0.3701,0.3699,0.3724,0.3703,0.3703,0.3702,0.3701,0.3704,0.3729,0.3729,0.373,0.373,0,0.3484,0.3486,0.3506,0.3527,0.3543,0.356,0.3576,0.3588,0.3593,0.361,0.3635,0.3651,0.3682,0.3707,0.3731,0.3741,0.3737,0.3737,0.3744,0.3745,0.3743,0.3746,0.367,0.3735,0.3735,0.3734,0.3734,0.3734,0.3522,0.354,0.3556,0.3578,0.3591,0.3606,0.3625,0.3633,0.3654,0.3679,0.368,0.3708,0.3726,0.3757,0.3769,0.3792,0.3785,0.3795,0.3797,0.38,0.3803,0.3738,0.3797,0.3796,0.3796,0.3796,0.3796,0,0.3575,0.3585,0.3606,0.3629,0.3647,0.3641,0.3659,0.3675,0.37,0.3716,0.3736,0.3767,0.3792,0.3804,0.3829,0.3846,0.3845,0.3852,0.3852,0.3855,0.3807,0.3799,0.3853,0.3853,0.3853,0.3853,0.3853,0.3853,0.3605,0.3636,0.364,0.3678,0.3688,0.3716,0.3727,0.3742,0.3755,0.3789,0.381,0.3817,0.3833,0.386,0.3883,0.3886,0.3896,0.3905,0.3908,0.3863,0.3858,0.3852,0.3845,0.3907,0.3907,0.3953,0.3954,0.3954]},{"header":{"parameterUnit":"m.s-1","parameterCategory":1,"la1":30.2991,"la2":30.254,"lo1":-89.0895,"lo2":-89.0444,"dy":0.0017,"dx":0.0017,"nx":28,"ny":28,"refTime":"2024-05-27T21:00:00:Z","depth":0,"parameterNumber":3,"parameterNumberName":"V-component_of_WINDS"},"data":[0,0,0,0,0,0,0,0,0,0,0,0,0,0,0,0,0,0,0,0,0,0,0,0,0,0,0,0,0,0,0,0,0,0,0,0,0,0,0,0,0,0,0,0,0,0,0,0,0,0,0,0,0,0,0,0,0,0,4.0793,4.0795,0,4.0952,4.0954,4.0956,4.0978,4.0976,4.0975,4.0973,4.113,4.1135,4.114,0,0,0,0,0,0,0,0,0,0,0,0,0,4.0503,4.0508,4.0793,4.0795,4.0797,4.0952,4.0954,4.0956,4.0978,4.0976,4.0974,4.0973,4.1128,4.1134,4.1141,0,0,0,0,0,0,0,0,0,0,0,0,0,4.0642,4.051,4.0793,4.0827,4.0831,4.0951,4.0954,4.0957,4.0978,4.0976,4.0974,4.0972,4.1126,4.1134,4.1142,4.1237,0,0,4.1167,4.1171,0,0,0,0,0,0,0,0,4.0634,4.0652,4.082,4.0825,4.083,4.0943,4.0909,4.105,4.0979,4.0922,4.0973,4.0971,4.1069,4.1082,4.1116,4.1244,4.1251,4.1168,4.1173,4.1176,4.1179,0,0,0,0,0,0,0,4.0624,4.0646,4.0856,4.0822,4.0828,4.0832,4.085,4.0936,4.1006,4.0927,4.0929,4.0948,4.1071,4.1108,4.112,4.1253,4.1168,4.1175,4.118,4.1183,4.1469,4.1471,0,0,0,0,0,0,4.0609,4.0637,4.0851,4.0861,4.0725,4.0839,4.0859,4.0909,4.1005,4.1018,4.095,4.0948,4.1095,4.111,4.1125,4.1245,4.1176,4.1184,4.1189,4.1466,4.1469,4.1472,0,0,0,0,0,0,4.0603,4.0628,4.0844,4.075,4.0778,4.0847,4.0903,4.0913,4.095,4.1022,4.1034,4.0975,4.1094,4.1114,4.121,4.125,4.1188,4.1195,4.1463,4.1467,4.1471,4.1483,0,0,0,0,0,0,4.0594,4.0626,4.0664,4.0751,4.0783,4.0928,4.0905,4.0918,4.0965,4.0965,4.1049,4.1061,4.1094,4.1197,4.1218,4.1261,4.1202,4.146,4.1465,4.1469,4.1479,4.1486,4.1493,0,0,0,0,0,4.0584,4.0659,4.0666,4.0691,4.0832,4.093,4.0948,4.0987,4.0968,4.1007,4.1053,4.1058,4.1242,4.1207,4.123,4.1276,4.1457,4.1463,4.1469,4.1476,4.1485,4.1493,0,0,0,0,0,0,4.0573,4.0671,4.0679,4.0785,4.085,4.0934,4.0983,4.0995,4.1064,4.1061,4.1103,4.1122,4.1216,4.1255,4.1214,4.1374,4.1348,4.1359,4.1345,4.1354,4.1361,4.135,4.1209,0,0,0,0,0,4.0583,4.0656,4.0737,4.0823,4.0855,4.0913,4.0957,4.0982,4.1049,4.1076,4.1129,4.1192,4.1265,4.1311,4.1382,4.1484,4.1503,4.1527,4.1534,4.1539,4.1549,4.1607,4.1619,4.1491,4.1491,4.1491,0,0,4.0604,4.0667,4.071,4.0822,4.0875,4.0949,4.0936,4.1014,4.1069,4.1087,4.1182,4.1223,4.1297,4.1397,4.1443,4.1432,4.1588,4.1547,4.1551,4.1557,4.1614,4.1626,4.1637,4.1495,4.1494,4.1494,0,0,4.068,4.0735,4.0813,4.0867,4.0948,4.0987,4.1005,4.1089,4.1118,4.1214,4.123,4.1294,4.1417,4.147,4.1512,4.161,4.1618,4.1631,4.1668,4.1724,4.1735,4.1744,4.178,4.1792,4.164,4.164,4.164,0,4.0696,4.081,4.0851,4.093,4.0979,4.1001,4.108,4.1129,4.1227,4.126,4.1247,4.1404,4.1454,4.1568,4.1592,4.1625,4.1647,4.1623,4.173,4.174,4.1749,4.1784,4.1797,4.1641,4.1641,4.1641,4.1641,0,4.0825,4.0904,4.0957,4.1055,4.1109,4.1187,4.1239,4.1289,4.1309,4.1348,4.1446,4.1508,4.1592,4.1621,4.1639,4.1737,4.1728,4.1722,4.1697,4.1762,4.1795,4.1809,4.1643,4.1643,4.1642,4.1642,0,0,4.0899,4.102,4.1039,4.1085,4.1176,4.1237,4.1315,4.14,4.1443,4.1509,4.1577,4.1681,4.1677,4.1725,4.175,4.1799,4.1874,4.1787,4.1789,4.1802,4.1987,4.1992,4.2007,4.1879,4.1882,4.1884,4.1981,0,4.0987,4.1131,4.1171,4.1292,4.1366,4.1388,4.1457,4.1519,4.1558,4.1625,4.1667,4.1741,4.1729,4.1759,4.1808,4.1854,4.1912,4.1848,4.1941,4.1944,4.1924,4.2025,4.203,4.2119,4.1995,4.1997,4.1998,0,4.1109,4.1182,4.1312,4.1396,4.1428,4.1489,4.1571,4.1634,4.1705,4.173,4.1785,4.1806,4.1887,4.1857,4.1971,4.1926,4.1966,4.1995,4.1999,4.201,4.1976,4.204,4.2148,4.2162,4.2019,4.2017,4.2016,0,4.1152,4.1282,4.1377,4.1415,4.1514,4.1557,4.16,4.1669,4.1718,4.1788,4.1821,4.1898,4.1941,4.2,4.2041,4.2015,4.2151,4.2124,4.2174,4.2173,4.2202,4.22,4.2321,4.2226,4.2225,4.2225,4.2225,0,4.1247,4.1326,4.1398,4.1456,4.1545,4.1589,4.1675,4.1718,4.178,4.1846,4.1868,4.1929,4.1979,4.2046,4.2078,4.2168,4.2186,4.2208,4.2216,4.2207,4.2205,4.2235,4.2231,4.2229,4.2228,4.2227,4.2227,0,4.131,4.1362,4.1467,4.1553,4.1577,4.1638,4.1711,4.1768,4.1808,4.1892,4.1914,4.1976,4.2057,4.2103,4.2204,4.2225,4.2326,4.2329,4.2303,4.2307,4.2354,4.235,4.25,4.2523,4.2411,4.2412,4.2413,0,4.1368,4.143,4.1524,4.1571,4.1616,4.1691,4.1742,4.1787,4.1839,4.1926,4.1972,4.2055,4.2124,4.2252,4.2305,4.2382,4.2389,4.2436,4.2401,4.2391,4.2392,4.2389,4.2396,4.2443,4.2444,4.2444,4.2445,0,4.1466,4.1489,4.1563,4.1647,4.1708,4.1775,4.1841,4.1878,4.1934,4.1991,4.2076,4.2129,4.2234,4.2316,4.2398,4.244,4.2452,4.2456,4.2472,4.2465,4.2447,4.2459,4.2321,4.2452,4.2452,4.2451,4.2451,4.2451,4.153,4.1587,4.1662,4.1744,4.18,4.1861,4.192,4.1969,4.2041,4.2132,4.2153,4.2242,4.2312,4.2424,4.2469,4.2538,4.253,4.2552,4.2558,4.2563,4.2566,4.2435,4.2553,4.2552,4.2552,4.2552,4.2552,0,4.1631,4.1681,4.1756,4.185,4.1914,4.1922,4.1996,4.2049,4.2128,4.2194,4.2262,4.2359,4.2439,4.2499,4.2581,4.2625,4.2633,4.2645,4.2643,4.2653,4.2568,4.2547,4.2638,4.2638,4.2638,4.2638,4.2637,4.2637,4.1691,4.1788,4.182,4.1944,4.1993,4.2083,4.2125,4.2182,4.2235,4.2344,4.2412,4.2451,4.2514,4.2601,4.2674,4.269,4.2719,4.2731,4.2748,4.2668,4.2658,4.265,4.263,4.2737,4.2737,4.2827,4.2828,4.2828]}]]